CST,Max TemperatureF,Mean TemperatureF,Min TemperatureF,Max Dew PointF,MeanDew PointF,Min DewpointF,Max Humidity, Mean Humidity, Min Humidity, Max Sea Level PressureIn, Mean Sea Level PressureIn, Min Sea Level PressureIn, Max VisibilityMiles, Mean VisibilityMiles, Min VisibilityMiles, Max Wind SpeedMPH, Mean Wind SpeedMPH, Max Gust SpeedMPH,PrecipitationIn, CloudCover, Events, WindDirDegrees
2012-12-1,83,60,36,36,28,24,62,36,15,30.10,30.04,29.98,10,10,7,16,5,20,0.00,0,,240
2012-12-2,81,58,35,35,28,23,62,39,15,30.14,30.05,29.98,10,10,10,9,4,,0.00,0,,187
2012-12-3,81,59,37,35,28,22,74,39,14,30.11,30.01,29.95,10,10,10,22,6,30,0.00,0,,240
2012-12-4,65,52,39,36,30,23,67,46,32,30.38,30.27,30.09,10,10,10,10,6,,0.00,0,,312
2012-12-5,71,52,32,35,30,24,74,54,25,30.33,30.17,29.98,10,10,10,8,4,,0.00,0,,193
2012-12-6,82,57,32,34,27,24,72,43,14,29.98,29.89,29.80,10,10,10,18,4,23,0.00,0,,240
2012-12-7,74,55,36,30,25,20,58,38,18,29.93,29.86,29.79,10,10,10,9,5,,0.00,0,,303
2012-12-8,75,56,36,32,24,19,49,32,17,29.95,29.87,29.80,10,10,10,23,7,29,0.00,0,,232
2012-12-9,73,57,36,34,28,13,61,37,21,30.25,29.92,29.82,10,10,4,29,11,34,0.00,1,,281
2012-12-10,46,37,26,22,17,11,67,49,33,30.28,30.16,30.02,10,10,10,24,9,32,0.00,2,,360
2012-12-11,55,36,18,16,12,6,67,46,20,30.17,30.07,30.02,10,10,10,8,3,,0.00,0,,297
2012-12-12,68,42,17,17,9,3,55,36,14,30.19,30.12,30.02,10,10,10,9,4,,0.00,0,,163
2012-12-13,72,48,24,40,19,8,63,42,19,30.13,30.06,29.97,10,10,7,14,3,16,0.00,0,,28
2012-12-14,76,62,49,43,38,25,71,53,24,30.00,29.89,29.69,10,10,2,36,13,45,0.00,1,,140
2012-12-15,62,53,44,32,28,25,49,41,30,30.04,29.96,29.89,10,10,10,21,12,25,0.00,0,,243
2012-12-16,64,50,37,32,30,27,67,45,25,30.02,29.93,29.85,10,10,7,28,12,33,0.00,0,,251
2012-12-17,68,54,40,30,26,20,61,39,19,30.04,29.99,29.91,10,10,7,30,15,38,0.00,0,,245
2012-12-18,77,54,31,23,19,15,51,31,13,29.94,29.83,29.75,10,10,7,9,3,,0.00,0,,145
2012-12-19,73,52,31,33,15,10,47,33,9,30.21,29.81,29.65,10,8,2,33,7,45,0.00,1,,262
2012-12-20,50,35,20,12,6,-1,51,33,17,30.54,30.43,30.24,10,10,7,15,6,21,0.00,0,,233
2012-12-21,50,32,14,7,1,-5,45,32,17,30.45,30.34,30.23,10,10,10,7,3,,0.00,0,,305
2012-12-22,58,40,21,22,7,0,43,29,16,30.24,30.14,30.04,10,10,10,13,3,16,0.00,0,,220
2012-12-23,70,54,37,35,27,21,55,34,23,30.06,30.02,29.97,10,10,4,23,9,32,0.00,0,,255
2012-12-24,68,46,25,26,21,16,68,40,17,30.03,29.88,29.70,10,10,7,13,3,,0.00,0,,226
2012-12-25,53,40,26,32,20,11,54,40,30,30.27,29.96,29.67,10,10,5,29,14,38,0.00,1,,308
2012-12-26,42,32,22,16,13,11,63,53,34,30.28,30.12,29.89,10,10,10,10,4,,0.00,0,,27
2012-12-27,56,36,16,20,13,6,66,51,24,29.88,29.81,29.72,10,10,10,10,3,,0.00,0,,288
2012-12-28,52,40,25,29,20,10,61,44,28,30.22,30.03,29.88,10,10,10,18,10,23,0.00,2,,260
2012-12-29,52,36,21,18,14,10,64,46,26,30.42,30.30,30.22,10,10,10,17,6,22,0.00,0,,53
2012-12-30,49,40,30,34,21,14,87,54,32,30.23,30.08,29.96,10,10,10,17,6,22,0.00,2,Rain,68
2012-12-31,61,46,30,38,30,24,96,66,26,30.09,29.98,29.91,10,10,7,29,8,34,0.00,1,,273